Regional Weather Roundup
Issued by NWS

Home | Current Version | Previous Version | Text Only | Print | Product List | Glossary On
Versions: 1 2 3 4 5 6 7 8 9 10 11 12 13 14 15 16 17 18 19 20 21 22 23 24 25 26 27 28 29 30 31 32 33 34 35 36 37 38 39 40 41 42 43 44 45 46 47 48 49 50
000
ASUS46 KPQR 060010
RWROR

OREGON REGIONAL WEATHER ROUNDUP
NATIONAL WEATHER SERVICE PORTLAND OR
400 PM PST THU MAR 05 2015

NOTE: "FAIR" INDICATES FEW OR NO CLOUDS BELOW 12,000 FEET WITH
NO SIGNIFICANT WEATHER AND/OR OBSTRUCTIONS TO VISIBILITY.

ORZ001>013-060100-
NORTHWEST OREGON


CITY           SKY/WX    TMP DP  RH WIND       PRES   REMARKS
ASTORIA        PTSUNNY   55  42  61 NW8       30.33F
6HR MIN TEMP:  46; 6HR MAX TEMP:  57;

NEWPORT        PTSUNNY   55  41  58 NW7       30.35S
PORTLAND       PTSUNNY   61  30  31 CALM      30.34S
6HR MIN TEMP:  43; 6HR MAX TEMP:  61;

VANCOUVER WA   PTSUNNY   59  28  30 CALM      30.33F
6HR MIN TEMP:  42; 6HR MAX TEMP:  60;

SCAPPOOSE      PTSUNNY   60  31  33 CALM      30.33F
6HR MIN TEMP:  42; 6HR MAX TEMP:  60;

HILLSBORO      PTSUNNY   60  34  37 CALM      30.33F
6HR MIN TEMP:  44; 6HR MAX TEMP:  60;

AURORA         PTSUNNY   60  33  36 CALM      30.34F
6HR MIN TEMP:  43; 6HR MAX TEMP:  61;

MCMINNVILLE    PTSUNNY   60  33  36 CALM      30.34F
6HR MIN TEMP:  43; 6HR MAX TEMP:  61;

SALEM          PTSUNNY   60  32  34 CALM      30.32F
6HR MIN TEMP:  45; 6HR MAX TEMP:  61;

CORVALLIS      MOSUNNY   63  39  42 CALM      30.34S
EUGENE         PTSUNNY   62  41  46 N8        30.32F
6HR MIN TEMP:  44; 6HR MAX TEMP:  63;

$$

ORZ021-028-060100-
SOUTHWEST OREGON


CITY           SKY/WX    TMP DP  RH WIND       PRES   REMARKS
NORTH BEND     SUNNY     59  39  47 W6        30.33S
6HR MIN TEMP:  50; 6HR MAX TEMP:  59;

BROOKINGS      SUNNY     62  38  41 CALM      30.32F
ROSEBURG       SUNNY     69  38  32 VRB5      30.29F
6HR MIN TEMP:  42; 6HR MAX TEMP:  70;

SEXTON SUMMIT  SUNNY     53  33  46 CALM      30.33S
MEDFORD        SUNNY     68  30  24 CALM      30.29F
6HR MIN TEMP:  44; 6HR MAX TEMP:  68;

$$

ORZ014>016-041-060100-
COLUMBIA GORGE


CITY           SKY/WX    TMP DP  RH WIND       PRES   REMARKS
TROUTDALE      PTSUNNY   60  31  33 VRB5      30.33S
6HR MIN TEMP:  44; 6HR MAX TEMP:  60;

THE DALLES     MOSUNNY   61  35  37 CALM      30.28S
6HR MIN TEMP:  40; 6HR MAX TEMP:  61;

$$

ORZ029>031-041-044-049-050-061>064-502-503-505>511-060100-
EASTERN OREGON


CITY           SKY/WX    TMP DP  RH WIND       PRES   REMARKS
REDMOND        SUNNY     63  18  17 CALM      30.27S
6HR MIN TEMP:  48; 6HR MAX TEMP:  65;

BEND           SUNNY     63  14  15 N5        30.28R
PRINEVILLE     SUNNY     61  16  17 CALM      30.28S
KLAMATH FALLS  SUNNY     61  15  16 SW3       30.31F
6HR MIN TEMP:  41; 6HR MAX TEMP:  62;

LAKEVIEW       SUNNY     59  16  18 S7        30.34R
HERMISTON      MOSUNNY   58  26  29 CALM      30.30S
6HR MIN TEMP:  43; 6HR MAX TEMP:  59;

PENDLETON      MOSUNNY   57  22  25 NW7       30.29S
6HR MIN TEMP:  47; 6HR MAX TEMP:  58;

JOHN DAY       SUNNY     57  19  23 W7        30.30S
MEACHAM        MOSUNNY   52  20  28 VRB3      30.30R
6HR MIN TEMP:  46; 6HR MAX TEMP:  56;

LA GRANDE      MOSUNNY   57  19  23 S9        30.29S
6HR MIN TEMP:  43; 6HR MAX TEMP:  57;

BAKER CITY     MOSUNNY   50  20  30 E3        30.32S
6HR MIN TEMP:  38; 6HR MAX TEMP:  52;

BURNS          SUNNY     58  14  17 SW12      30.31S
6HR MIN TEMP:  41; 6HR MAX TEMP:  60;

ROME             N/A     61   8  12 W6        30.30S
6HR MIN TEMP:  46; 6HR MAX TEMP:  62;

ONTARIO        SUNNY     55  19  24 CALM      30.36F
6HR MIN TEMP:  37; 6HR MAX TEMP:  56;

$$



USA.gov is the U.S. government's official web portal to all federal, state and local government web resources and services.